Weather Roundup
Issued by NWS Springfield, MO

Home | Current Version | Previous Version | Text Only | Print | Product List | Glossary On
Versions: 1 2 3 4 5 6 7 8 9 10 11 12 13 14 15 16 17 18 19 20 21 22 23 24 25 26 27 28 29 30 31 32 33 34 35 36 37 38 39 40 41 42 43 44 45 46 47 48 49 50
000
NZUS99 KSGF 280507
HRRSGF

HOURLY WEATHER
NATIONAL WEATHER SERVICE SPRINGFIELD MO
1200 AM CDT FRI JUL 28 2017

......SGF CWA......

CITY           SKY/WX    TMP DP  RH WIND       PRES   REMARKS
SPRINGFIELD    CLOUDY    77  76  96 CALM      29.93F
JOPLIN         TSTM      79  78  97 S6        29.93S FOG
WEST PLAINS    LGT RAIN  77  75  93 N3        29.95S
ROLLA          PTCLDY    72  72 100 CALM      29.95S
OSAGE BEACH    MOCLDY    76  74  93 E5        29.94S
BRANSON        CLOUDY    77  77 100 CALM      29.95S

......SURROUNDING SGF CWA......

CITY           SKY/WX    TMP DP  RH WIND       PRES   REMARKS
CHANUTE        CLOUDY    80  75  84 N5        29.94F
PARSONS        CLOUDY    77  75  93 NE7       29.93F
COFFEYVILLE    PTCLDY    77  76  96 N3        29.91S
EMPORIA        CLOUDY    75  71  87 N6        29.97F
GROVE OK       CLOUDY    79  77  94 E3        29.91F
ROGERS AR      CLOUDY    78  74  87 N6        29.94F
SILOAM SPRINGS MOCLDY    79  73  83 E3        29.92F
HARRISON AR    CLOUDY    78  76  93 S5        29.95R
NEAR YELLVILLE CLOUDY    79  72  78 CALM      29.89S

......KANSAS AND MISSOURI......

CITY           SKY/WX    TMP DP  RH WIND       PRES   REMARKS
KANSAS CTY INT PTCLDY    74  71  91 N7        29.96F
COLUMBIA       CLOUDY    76  73  91 NW3       29.94S
SEDALIA        CLOUDY    77  76  96 NE6       29.95F
ST JOSEPH      PTCLDY    72  69  90 N7        29.98R
ST LOUIS       MOCLDY    79  74  84 CALM      29.89F
SPIRIT OF STL  CLOUDY    76  76 100 SW3       29.88S
KIRKSVILLE     CLEAR     72  67  84 NE7       29.98S
WICHITA        CLOUDY    79  70  74 NE9       29.97S
TOPEKA         PTCLDY    75  70  84 CALM      29.97S
OLATHE         CLEAR     76  72  87 N3        29.96F

......TENNESSEE......

CITY           SKY/WX    TMP DP  RH WIND       PRES   REMARKS
MEMPHIS        CLOUDY    80  77  90 S12       29.89F
NASHVILLE      CLOUDY    80  72  76 W5        29.91F

......ARKANSAS.......

CITY           SKY/WX    TMP DP  RH WIND       PRES   REMARKS
FAYETTEVILLE   PTCLDY    77  77 100 S5        29.93S
FT SMITH       CLOUDY    87  76  69 CALM      29.87F HX  97
LITTLE ROCK    CLOUDY    84  77  79 SW13      29.87F HX  94

......OKLAHOMA.......

CITY           SKY/WX    TMP DP  RH WIND       PRES   REMARKS
TULSA          CLOUDY    84  76  76 CALM      29.88S HX  93
PONCA CITY     MOCLDY    81  72  74 NE8       29.92F
MCALESTER      CLOUDY    86  73  65 S6        29.90R HX  93
OKLAHOMA CITY  CLOUDY    79  73  82 W3        29.95R

......IOWA............

CITY           SKY/WX    TMP DP  RH WIND       PRES   REMARKS
DES MOINES     CLEAR     74  62  66 NE3       30.00R
QUAD CITIES    CLEAR     67  64  90 CALM      29.97R

......ILLINOIS........

CITY           SKY/WX    TMP DP  RH WIND       PRES   REMARKS
QUINCY         CLOUDY    75  71  87 NE7       29.95R
CHICAGO        PTCLDY    70  60  70 N9        29.94S



USA.gov is the U.S. government's official web portal to all federal, state and local government web resources and services.